Volver al catálogo

GLOBALSTAR M055

ActivoComunicacionesLEO
NORAD 25910·PAYLOAD·🇺🇸 United States

Lanzado Sep 22, 1999 desde Baikonur Cosmodrome

Loading…

Próximos Pases (próximas 24 horas)

TLE

ActualizadoSource: Space-Track

Época: Sep 14, 2026, 01:43 UTC

1 25910U 99049D   26257.07202295 -.00000056  00000-0  33082-3 0  9998
2 25910  52.0007 140.0508 0007219   1.1922 358.8946 12.29448411224114

Sigue GLOBALSTAR M055 en tiempo real con AllMySat

Download on the App Store